Time,TemperatureF,DewpointF,PressureIn,WindDirection,WindDirectionDegrees,WindSpeedMPH,WindSpeedGustMPH,Humidity,HourlyPrecipIn,Conditions,Clouds,dailyrainin,SoftwareType,DateUTC
2013-01-30 00:02:00,34.2,33.2,29.60,SSE,147,0.0,0.0,96,0.00,,,0.00,VWS V13.01,2013-01-30 05:02:00,
2013-01-30 00:03:00,34.1,33.3,29.59,SSE,147,0.0,0.0,97,0.00,,,0.00,VWS V13.01,2013-01-30 05:03:00,
2013-01-30 00:04:00,34.1,33.1,29.60,SSE,147,0.0,0.0,96,0.00,,,0.00,VWS V13.01,2013-01-30 05:04:00,
2013-01-30 00:09:00,34.0,33.2,29.59,SSE,147,0.0,0.0,97,0.00,,,0.00,VWS V13.01,2013-01-30 05:09:00,
2013-01-30 00:14:00,33.9,32.9,29.59,SSE,147,0.0,0.0,96,0.00,,,0.00,VWS V13.01,2013-01-30 05:14:00,
2013-01-30 00:19:00,33.9,33.1,29.58,SSE,147,0.0,2.0,97,0.00,,,0.00,VWS V13.01,2013-01-30 05:19:00,
2013-01-30 00:24:00,33.9,33.1,29.58,SSE,147,0.0,2.0,97,0.00,,,0.00,VWS V13.01,2013-01-30 05:24:00,
2013-01-30 00:29:00,33.8,33.0,29.58,SSE,147,0.0,2.0,97,0.00,,,0.00,VWS V13.01,2013-01-30 05:29:00,
2013-01-30 00:34:00,33.8,33.0,29.58,SSE,147,0.0,2.0,97,0.00,,,0.00,VWS V13.01,2013-01-30 05:34:00,
2013-01-30 00:39:00,33.8,33.0,29.58,SSE,147,0.0,2.0,97,0.00,,,0.00,VWS V13.01,2013-01-30 05:39:00,
2013-01-30 00:44:00,33.8,33.0,29.58,SSE,147,0.0,2.0,97,0.00,,,0.00,VWS V13.01,2013-01-30 05:44:00,
2013-01-30 00:49:00,33.8,33.0,29.57,SSE,147,0.0,2.0,97,0.00,,,0.00,VWS V13.01,2013-01-30 05:49:00,
2013-01-30 00:54:00,33.7,32.9,29.57,SSE,147,0.0,2.0,97,0.00,,,0.00,VWS V13.01,2013-01-30 05:54:00,
2013-01-30 00:59:00,33.6,32.8,29.57,SSE,147,0.0,2.0,97,0.00,,,0.00,VWS V13.01,2013-01-30 05:59:00,
2013-01-30 01:04:00,33.6,32.8,29.57,SSE,147,0.0,0.0,97,0.00,,,0.00,VWS V13.01,2013-01-30 06:04:00,
2013-01-30 01:09:00,33.5,32.7,29.56,SSE,147,0.0,3.0,97,0.00,,,0.00,VWS V13.01,2013-01-30 06:09:00,
2013-01-30 01:14:00,33.5,32.7,29.56,SSE,147,0.0,3.0,97,0.00,,,0.00,VWS V13.01,2013-01-30 06:14:00,
2013-01-30 01:19:00,33.5,32.7,29.56,SSE,147,0.0,3.0,97,0.00,,,0.00,VWS V13.01,2013-01-30 06:19:00,
2013-01-30 01:24:00,33.5,32.7,29.56,SSE,147,0.0,3.0,97,0.00,,,0.00,VWS V13.01,2013-01-30 06:24:00,
2013-01-30 01:29:00,33.4,32.6,29.57,SSE,147,0.0,3.0,97,0.00,,,0.00,VWS V13.01,2013-01-30 06:29:00,
2013-01-30 01:34:00,33.4,32.6,29.56,SSE,147,1.0,1.0,97,0.00,,,0.00,VWS V13.01,2013-01-30 06:34:00,
2013-01-30 01:39:00,33.3,32.5,29.57,SSE,147,0.0,1.0,97,0.00,,,0.00,VWS V13.01,2013-01-30 06:39:00,
2013-01-30 01:44:00,33.3,32.5,29.56,SSE,147,0.0,1.0,97,0.00,,,0.00,VWS V13.01,2013-01-30 06:44:00,
2013-01-30 01:49:00,33.2,32.4,29.56,SSE,147,0.0,1.0,97,0.00,,,0.00,VWS V13.01,2013-01-30 06:49:00,
2013-01-30 01:54:00,33.2,32.4,29.56,SSE,147,0.0,1.0,97,0.00,,,0.00,VWS V13.01,2013-01-30 06:54:00,
2013-01-30 01:59:00,33.2,32.4,29.56,SSE,147,1.0,1.0,97,0.00,,,0.00,VWS V13.01,2013-01-30 06:59:00,
2013-01-30 02:04:00,33.1,32.3,29.55,SSE,147,0.0,2.0,97,0.00,,,0.00,VWS V13.01,2013-01-30 07:04:00,
2013-01-30 02:09:00,33.1,32.3,29.54,SSE,147,0.0,2.0,97,0.00,,,0.00,VWS V13.01,2013-01-30 07:09:00,
2013-01-30 02:14:00,33.1,32.3,29.54,SSE,147,0.0,2.0,97,0.00,,,0.00,VWS V13.01,2013-01-30 07:14:00,
2013-01-30 02:19:00,33.1,32.3,29.53,SSE,147,0.0,2.0,97,0.00,,,0.00,VWS V13.01,2013-01-30 07:19:00,
2013-01-30 02:24:00,33.0,32.2,29.53,SSE,147,0.0,2.0,97,0.00,,,0.00,VWS V13.01,2013-01-30 07:24:00,
2013-01-30 02:29:00,33.0,32.2,29.53,SSE,147,1.0,2.0,97,0.00,,,0.00,VWS V13.01,2013-01-30 07:29:00,
2013-01-30 02:34:00,33.0,32.2,29.52,SSE,147,0.0,2.0,97,0.00,,,0.00,VWS V13.01,2013-01-30 07:34:00,
2013-01-30 02:39:00,32.9,32.1,29.51,SSE,147,0.0,2.0,97,0.00,,,0.00,VWS V13.01,2013-01-30 07:39:00,
2013-01-30 02:44:00,32.9,32.1,29.51,SSE,147,2.0,3.0,97,0.00,,,0.00,VWS V13.01,2013-01-30 07:44:00,
2013-01-30 02:49:00,33.1,32.3,29.51,SSE,147,0.0,4.0,97,0.00,,,0.00,VWS V13.01,2013-01-30 07:49:00,
2013-01-30 02:54:00,33.2,32.4,29.51,SSE,147,3.0,4.0,97,0.00,,,0.00,VWS V13.01,2013-01-30 07:54:00,
2013-01-30 02:59:00,33.2,32.4,29.51,SSE,147,0.0,4.0,97,0.00,,,0.00,VWS V13.01,2013-01-30 07:59:00,
2013-01-30 03:04:00,33.2,32.4,29.50,SSE,147,0.0,3.0,97,0.00,,,0.00,VWS V13.01,2013-01-30 08:04:00,
2013-01-30 03:09:00,33.2,32.4,29.50,SSE,147,0.0,3.0,97,0.00,,,0.00,VWS V13.01,2013-01-30 08:09:00,
2013-01-30 03:14:00,33.2,32.4,29.50,SSE,147,0.0,3.0,97,0.00,,,0.00,VWS V13.01,2013-01-30 08:14:00,
2013-01-30 03:19:00,33.1,32.3,29.49,SSE,147,0.0,3.0,97,0.00,,,0.00,VWS V13.01,2013-01-30 08:19:00,
2013-01-30 03:24:00,33.1,32.3,29.49,SSE,147,0.0,3.0,97,0.00,,,0.00,VWS V13.01,2013-01-30 08:24:00,
2013-01-30 03:29:00,33.1,32.3,29.48,SSE,147,0.0,4.0,97,0.00,,,0.00,VWS V13.01,2013-01-30 08:29:00,
2013-01-30 03:34:00,33.2,32.4,29.48,SSE,147,1.0,3.0,97,0.00,,,0.00,VWS V13.01,2013-01-30 08:34:00,
2013-01-30 03:39:00,33.4,32.9,29.47,SSE,147,0.0,3.0,98,0.00,,,0.00,VWS V13.01,2013-01-30 08:39:00,
2013-01-30 03:44:00,33.6,33.1,29.47,SSE,147,0.0,3.0,98,0.00,,,0.00,VWS V13.01,2013-01-30 08:44:00,
2013-01-30 03:49:00,33.7,33.2,29.47,SSE,147,1.0,3.0,98,0.00,,,0.00,VWS V13.01,2013-01-30 08:49:00,
2013-01-30 03:54:00,33.8,33.3,29.47,SSE,147,0.0,3.0,98,0.00,,,0.00,VWS V13.01,2013-01-30 08:54:00,
2013-01-30 03:59:00,33.9,33.4,29.48,SSE,147,0.0,4.0,98,0.00,,,0.00,VWS V13.01,2013-01-30 08:59:00,
2013-01-30 04:04:00,33.8,33.3,29.48,SSE,147,0.0,3.0,98,0.00,,,0.00,VWS V13.01,2013-01-30 09:04:00,
2013-01-30 04:09:00,33.7,33.2,29.47,SSE,147,1.0,3.0,98,0.00,,,0.00,VWS V13.01,2013-01-30 09:09:00,
2013-01-30 04:14:00,33.6,33.1,29.48,SSE,147,3.0,3.0,98,0.00,,,0.00,VWS V13.01,2013-01-30 09:14:00,
2013-01-30 04:19:00,33.6,33.1,29.48,SSE,147,1.0,4.0,98,0.00,,,0.00,VWS V13.01,2013-01-30 09:19:00,
2013-01-30 04:24:00,33.6,33.1,29.47,SSE,147,0.0,4.0,98,0.00,,,0.00,VWS V13.01,2013-01-30 09:24:00,
2013-01-30 04:29:00,33.5,33.0,29.47,SSE,147,0.0,4.0,98,0.00,,,0.00,VWS V13.01,2013-01-30 09:29:00,
2013-01-30 04:34:00,33.5,33.0,29.48,SSE,147,2.0,3.0,98,0.00,,,0.00,VWS V13.01,2013-01-30 09:34:00,
2013-01-30 04:39:00,33.5,33.0,29.47,SSE,147,0.0,3.0,98,0.00,,,0.00,VWS V13.01,2013-01-30 09:39:00,
2013-01-30 04:44:00,33.5,33.0,29.47,SSE,147,0.0,4.0,98,0.00,,,0.00,VWS V13.01,2013-01-30 09:44:00,
2013-01-30 04:49:00,33.5,33.0,29.47,SSE,147,0.0,4.0,98,0.00,,,0.00,VWS V13.01,2013-01-30 09:49:00,
2013-01-30 04:54:00,33.5,33.0,29.47,SSE,147,0.0,4.0,98,0.00,,,0.00,VWS V13.01,2013-01-30 09:54:00,
2013-01-30 04:59:00,33.5,33.0,29.46,SSE,147,0.0,4.0,98,0.00,,,0.00,VWS V13.01,2013-01-30 09:59:00,
2013-01-30 05:04:00,33.5,33.0,29.46,SSE,147,0.0,0.0,98,0.00,,,0.00,VWS V13.01,2013-01-30 10:04:00,
2013-01-30 05:09:00,33.5,33.0,29.46,SSE,147,0.0,0.0,98,0.00,,,0.00,VWS V13.01,2013-01-30 10:09:00,
2013-01-30 05:14:00,33.6,33.1,29.45,SSE,147,0.0,0.0,98,0.00,,,0.00,VWS V13.01,2013-01-30 10:14:00,
2013-01-30 05:19:00,33.7,33.2,29.45,SSE,147,0.0,2.0,98,0.00,,,0.00,VWS V13.01,2013-01-30 10:19:00,
2013-01-30 05:24:00,33.7,33.2,29.45,SSE,147,1.0,3.0,98,0.00,,,0.00,VWS V13.01,2013-01-30 10:24:00,
2013-01-30 05:29:00,33.8,33.3,29.45,SSE,147,1.0,3.0,98,0.00,,,0.00,VWS V13.01,2013-01-30 10:29:00,
2013-01-30 05:34:00,33.9,33.4,29.45,SSE,147,0.0,2.0,98,0.00,,,0.00,VWS V13.01,2013-01-30 10:34:00,
2013-01-30 05:39:00,34.1,33.6,29.44,SSE,147,2.0,2.0,98,0.00,,,0.00,VWS V13.01,2013-01-30 10:39:00,
2013-01-30 05:44:00,34.2,33.7,29.43,SSE,147,0.0,3.0,98,0.00,,,0.00,VWS V13.01,2013-01-30 10:44:00,
2013-01-30 05:49:00,34.3,33.8,29.44,SSE,147,0.0,3.0,98,0.00,,,0.00,VWS V13.01,2013-01-30 10:49:00,
2013-01-30 05:54:00,34.3,33.8,29.44,SSE,147,0.0,3.0,98,0.00,,,0.00,VWS V13.01,2013-01-30 10:54:00,
2013-01-30 05:59:00,34.3,33.8,29.45,SSE,147,0.0,3.0,98,0.00,,,0.00,VWS V13.01,2013-01-30 10:59:00,
2013-01-30 06:04:00,34.3,33.8,29.43,SSE,147,0.0,0.0,98,0.00,,,0.00,VWS V13.01,2013-01-30 11:04:00,
2013-01-30 06:09:00,34.3,33.8,29.43,SSE,147,2.0,2.0,98,0.00,,,0.00,VWS V13.01,2013-01-30 11:09:00,
2013-01-30 06:14:00,34.3,33.8,29.43,SSE,147,0.0,2.0,98,0.00,,,0.00,VWS V13.01,2013-01-30 11:14:00,
2013-01-30 06:19:00,34.3,33.8,29.43,SSE,147,0.0,2.0,98,0.00,,,0.00,VWS V13.01,2013-01-30 11:19:00,
2013-01-30 06:24:00,34.3,33.8,29.43,SSE,147,0.0,3.0,98,0.00,,,0.00,VWS V13.01,2013-01-30 11:24:00,
2013-01-30 06:29:00,34.3,33.8,29.43,SSE,147,0.0,3.0,98,0.00,,,0.00,VWS V13.01,2013-01-30 11:29:00,
2013-01-30 06:34:00,34.4,33.9,29.42,SSE,147,0.0,2.0,98,0.00,,,0.00,VWS V13.01,2013-01-30 11:34:00,
2013-01-30 06:39:00,34.5,34.0,29.42,SSE,147,0.0,3.0,98,0.00,,,0.00,VWS V13.01,2013-01-30 11:39:00,
2013-01-30 06:44:00,34.7,34.2,29.42,SSE,147,0.0,3.0,98,0.00,,,0.00,VWS V13.01,2013-01-30 11:44:00,
2013-01-30 06:49:00,34.9,34.4,29.43,SSE,147,0.0,3.0,98,0.00,,,0.00,VWS V13.01,2013-01-30 11:49:00,
2013-01-30 06:54:00,35.0,34.5,29.43,SSE,147,0.0,3.0,98,0.00,,,0.00,VWS V13.01,2013-01-30 11:54:00,
2013-01-30 06:59:00,35.1,34.6,29.42,SSE,147,1.0,4.0,98,0.00,,,0.00,VWS V13.01,2013-01-30 11:59:00,
2013-01-30 07:04:00,35.2,35.0,29.42,SSE,147,0.0,2.0,99,0.00,,,0.00,VWS V13.01,2013-01-30 12:04:00,
2013-01-30 07:09:00,35.3,34.8,29.41,SSE,147,2.0,2.0,98,0.00,,,0.00,VWS V13.01,2013-01-30 12:09:00,
2013-01-30 07:14:00,35.4,34.9,29.40,SSE,147,1.0,2.0,98,0.00,,,0.00,VWS V13.01,2013-01-30 12:14:00,
2013-01-30 07:19:00,35.6,35.3,29.41,SSE,147,0.0,3.0,99,0.00,,,0.00,VWS V13.01,2013-01-30 12:19:00,
2013-01-30 07:24:00,35.7,35.5,29.40,SSE,147,0.0,4.0,99,0.00,,,0.00,VWS V13.01,2013-01-30 12:24:00,
2013-01-30 07:29:00,35.9,35.4,29.39,SSE,147,0.0,4.0,98,0.00,,,0.00,VWS V13.01,2013-01-30 12:29:00,
2013-01-30 07:34:00,36.1,35.8,29.39,SSE,147,0.0,3.0,99,0.00,,,0.00,VWS V13.01,2013-01-30 12:34:00,
2013-01-30 07:39:00,36.9,36.7,29.38,SSE,147,3.0,3.0,99,0.00,,,0.00,VWS V13.01,2013-01-30 12:39:00,
2013-01-30 07:44:00,37.8,37.5,29.38,SSE,147,1.0,4.0,99,0.00,,,0.00,VWS V13.01,2013-01-30 12:44:00,
2013-01-30 07:49:00,38.3,38.0,29.37,SSE,147,3.0,4.0,99,0.00,,,0.00,VWS V13.01,2013-01-30 12:49:00,
2013-01-30 07:54:00,38.9,38.9,29.38,SSE,147,0.0,4.0,100,0.00,,,0.00,VWS V13.01,2013-01-30 12:54:00,
2013-01-30 07:59:00,39.5,39.5,29.38,SSE,147,0.0,4.0,100,0.00,,,0.00,VWS V13.01,2013-01-30 12:59:00,
2013-01-30 08:04:00,40.1,40.1,29.37,SSE,147,1.0,3.0,100,0.00,,,0.00,VWS V13.01,2013-01-30 13:04:00,
2013-01-30 08:09:00,40.4,40.4,29.38,SSE,147,0.0,3.0,100,0.00,,,0.00,VWS V13.01,2013-01-30 13:09:00,
2013-01-30 08:14:00,40.5,40.5,29.38,SSE,147,0.0,3.0,100,0.00,,,0.00,VWS V13.01,2013-01-30 13:14:00,
2013-01-30 08:19:00,40.8,40.8,29.37,SSE,147,0.0,3.0,100,0.00,,,0.00,VWS V13.01,2013-01-30 13:19:00,
2013-01-30 08:24:00,41.1,41.1,29.37,SSE,147,2.0,5.0,100,0.00,,,0.00,VWS V13.01,2013-01-30 13:24:00,
2013-01-30 08:29:00,41.6,41.6,29.36,SSE,147,0.0,5.0,100,0.00,,,0.00,VWS V13.01,2013-01-30 13:29:00,
2013-01-30 08:34:00,41.9,41.9,29.36,SSE,147,0.0,2.0,100,0.00,,,0.00,VWS V13.01,2013-01-30 13:34:00,
2013-01-30 08:39:00,42.3,42.3,29.35,SSE,147,3.0,3.0,100,0.00,,,0.00,VWS V13.01,2013-01-30 13:39:00,
2013-01-30 08:44:00,43.0,43.0,29.34,SE,144,0.0,3.0,100,0.00,,,0.00,VWS V13.01,2013-01-30 13:44:00,
2013-01-30 08:49:00,43.6,43.6,29.34,SSE,147,2.0,3.0,100,0.00,,,0.00,VWS V13.01,2013-01-30 13:49:00,
2013-01-30 08:54:00,44.1,44.1,29.34,SE,142,2.0,9.0,100,0.00,,,0.00,VWS V13.01,2013-01-30 13:54:00,
2013-01-30 08:59:00,45.2,45.2,29.34,SE,141,0.0,9.0,100,0.00,,,0.00,VWS V13.01,2013-01-30 13:59:00,
2013-01-30 09:04:00,45.6,45.6,29.34,SE,140,0.0,4.0,100,0.00,,,0.00,VWS V13.01,2013-01-30 14:04:00,
2013-01-30 09:09:00,46.1,46.1,29.33,SE,141,3.0,4.0,100,0.00,,,0.00,VWS V13.01,2013-01-30 14:09:00,
2013-01-30 09:14:00,47.7,47.7,29.33,SSE,158,6.0,10.0,100,0.00,,,0.00,VWS V13.01,2013-01-30 14:14:00,
2013-01-30 09:19:00,49.1,49.1,29.33,SSE,161,1.0,10.0,100,0.00,,,0.00,VWS V13.01,2013-01-30 14:19:00,
2013-01-30 09:24:00,50.2,50.2,29.32,SSE,158,1.0,10.0,100,0.00,,,0.00,VWS V13.01,2013-01-30 14:24:00,
2013-01-30 09:29:00,50.8,50.8,29.32,SE,139,4.0,10.0,100,0.00,,,0.00,VWS V13.01,2013-01-30 14:29:00,
2013-01-30 09:34:00,51.3,51.3,29.32,South,191,4.0,11.0,100,0.00,,,0.00,VWS V13.01,2013-01-30 14:34:00,
2013-01-30 09:39:00,52.1,52.1,29.32,SSE,156,3.0,11.0,100,0.00,,,0.00,VWS V13.01,2013-01-30 14:39:00,
2013-01-30 09:44:00,52.7,52.7,29.32,East,100,4.0,13.0,100,0.00,,,0.00,VWS V13.01,2013-01-30 14:44:00,
2013-01-30 09:49:00,53.4,53.4,29.31,SSE,166,9.0,13.0,100,0.00,,,0.00,VWS V13.01,2013-01-30 14:49:00,
2013-01-30 09:54:00,53.9,53.9,29.31,SSE,157,4.0,16.0,100,0.00,,,0.00,VWS V13.01,2013-01-30 14:54:00,
2013-01-30 09:59:00,54.4,54.4,29.31,South,181,7.0,16.0,100,0.00,,,0.00,VWS V13.01,2013-01-30 14:59:00,
2013-01-30 10:04:00,54.8,54.8,29.30,South,178,6.0,14.0,100,0.00,,,0.00,VWS V13.01,2013-01-30 15:04:00,
2013-01-30 10:09:00,55.2,55.2,29.31,South,175,4.0,14.0,100,0.00,,,0.00,VWS V13.01,2013-01-30 15:09:00,
2013-01-30 10:14:00,55.5,55.5,29.30,SSE,159,6.0,17.0,100,0.00,,,0.00,VWS V13.01,2013-01-30 15:14:00,
2013-01-30 10:19:00,55.8,55.8,29.30,SSE,157,2.0,17.0,100,0.00,,,0.00,VWS V13.01,2013-01-30 15:19:00,
2013-01-30 10:24:00,56.1,56.1,29.30,SSE,160,7.0,17.0,100,0.00,,,0.00,VWS V13.01,2013-01-30 15:24:00,
2013-01-30 10:29:00,56.3,56.3,29.29,SSE,160,6.0,17.0,100,0.00,,,0.00,VWS V13.01,2013-01-30 15:29:00,
2013-01-30 10:34:00,56.6,56.6,29.29,SSE,167,10.0,14.0,100,0.00,,,0.00,VWS V13.01,2013-01-30 15:34:00,
2013-01-30 10:39:00,57.0,57.0,29.27,SSE,153,10.0,15.0,100,0.00,,,0.00,VWS V13.01,2013-01-30 15:39:00,
2013-01-30 10:44:00,57.4,57.4,29.27,SE,143,5.0,19.0,100,0.00,,,0.00,VWS V13.01,2013-01-30 15:44:00,
2013-01-30 10:49:00,57.9,57.9,29.27,SSE,156,16.0,25.0,100,0.00,,,0.00,VWS V13.01,2013-01-30 15:49:00,
2013-01-30 10:54:00,58.3,58.3,29.27,SSE,151,7.0,25.0,100,0.00,,,0.00,VWS V13.01,2013-01-30 15:54:00,
2013-01-30 10:59:00,58.7,58.1,29.26,SSE,157,12.0,25.0,98,0.00,,,0.00,VWS V13.01,2013-01-30 15:59:00,
2013-01-30 11:04:00,58.9,58.0,29.26,SSW,199,5.0,23.0,97,0.00,,,0.00,VWS V13.01,2013-01-30 16:04:00,
2013-01-30 11:09:00,59.1,58.0,29.26,SSE,164,8.0,25.0,96,0.01,,,0.01,VWS V13.01,2013-01-30 16:09:00,
2013-01-30 11:14:00,59.3,58.2,29.26,SSE,151,13.0,25.0,96,0.01,,,0.01,VWS V13.01,2013-01-30 16:14:00,
2013-01-30 11:19:00,59.5,58.1,29.25,South,170,10.0,25.0,95,0.01,,,0.01,VWS V13.01,2013-01-30 16:19:00,
2013-01-30 11:24:00,59.7,57.7,29.25,South,174,7.0,25.0,93,0.01,,,0.01,VWS V13.01,2013-01-30 16:24:00,
2013-01-30 11:30:00,59.9,57.6,29.25,SE,141,7.0,25.0,92,0.01,,,0.01,VWS V13.01,2013-01-30 16:30:00,
2013-01-30 11:35:00,60.0,57.4,29.25,South,173,14.0,16.0,91,0.01,,,0.01,VWS V13.01,2013-01-30 16:35:00,
2013-01-30 11:40:00,60.1,57.2,29.25,SSW,198,6.0,18.0,90,0.01,,,0.01,VWS V13.01,2013-01-30 16:40:00,
2013-01-30 11:45:00,60.3,57.7,29.25,South,170,3.0,18.0,91,0.01,,,0.01,VWS V13.01,2013-01-30 16:45:00,
2013-01-30 11:50:00,60.3,57.4,29.23,South,175,9.0,18.0,90,0.01,,,0.01,VWS V13.01,2013-01-30 16:50:00,
2013-01-30 11:55:00,60.6,58.0,29.22,WNW,286,6.0,18.0,91,0.01,,,0.01,VWS V13.01,2013-01-30 16:55:00,
2013-01-30 12:00:00,60.8,57.8,29.22,SSE,153,5.0,18.0,90,0.01,,,0.01,VWS V13.01,2013-01-30 17:00:00,
2013-01-30 12:05:00,61.0,57.7,29.22,SSE,160,1.0,14.0,89,0.01,,,0.01,VWS V13.01,2013-01-30 17:05:00,
2013-01-30 12:10:00,61.2,57.9,29.22,South,189,4.0,14.0,89,0.01,,,0.01,VWS V13.01,2013-01-30 17:10:00,
2013-01-30 12:15:00,61.3,58.0,29.21,SE,144,1.0,16.0,89,0.01,,,0.01,VWS V13.01,2013-01-30 17:15:00,
2013-01-30 12:20:00,61.5,58.2,29.20,SSW,198,4.0,16.0,89,0.01,,,0.01,VWS V13.01,2013-01-30 17:20:00,
2013-01-30 12:25:00,61.6,58.3,29.20,SE,137,4.0,16.0,89,0.01,,,0.01,VWS V13.01,2013-01-30 17:25:00,
2013-01-30 12:30:00,61.8,58.2,29.19,SSE,148,6.0,16.0,88,0.01,,,0.01,VWS V13.01,2013-01-30 17:30:00,
2013-01-30 12:35:00,62.1,58.2,29.19,SSW,205,9.0,16.0,87,0.00,,OVC020,0.01,VWS V13.01,2013-01-30 17:35:00,
2013-01-30 12:40:00,62.3,58.7,29.19,SSE,156,2.0,16.0,88,0.00,,OVC020,0.01,VWS V13.01,2013-01-30 17:40:00,
2013-01-30 12:45:00,62.6,58.7,29.18,SSW,195,9.0,20.0,87,0.00,,OVC020,0.01,VWS V13.01,2013-01-30 17:45:00,
2013-01-30 12:50:00,62.9,59.0,29.18,South,183,9.0,23.0,87,0.00,,OVC020,0.01,VWS V13.01,2013-01-30 17:50:00,
2013-01-30 12:55:00,63.2,59.3,29.17,South,185,8.0,23.0,87,0.00,,OVC020,0.01,VWS V13.01,2013-01-30 17:55:00,
2013-01-30 13:00:00,63.4,59.2,29.17,SSE,152,8.0,12.0,86,0.00,,OVC020,0.01,VWS V13.01,2013-01-30 18:00:00,
2013-01-30 13:05:00,63.5,59.2,29.16,SSE,165,10.0,21.0,86,0.00,,OVC020,0.01,VWS V13.01,2013-01-30 18:05:00,
2013-01-30 13:10:00,63.5,59.2,29.17,SSE,158,3.0,22.0,86,0.00,,OVC020,0.01,VWS V13.01,2013-01-30 18:10:00,
2013-01-30 13:15:00,63.5,59.2,29.17,SSE,154,6.0,22.0,86,0.00,,OVC020,0.01,VWS V13.01,2013-01-30 18:15:00,
2013-01-30 13:20:00,63.4,59.5,29.17,SSE,158,14.0,22.0,87,0.00,,OVC020,0.01,VWS V13.01,2013-01-30 18:20:00,
2013-01-30 13:25:00,63.2,59.3,29.16,SE,144,3.0,22.0,87,0.00,,OVC020,0.01,VWS V13.01,2013-01-30 18:25:00,
2013-01-30 13:30:00,62.9,59.3,29.17,South,183,6.0,22.0,88,0.00,,OVC020,0.01,VWS V13.01,2013-01-30 18:30:00,
2013-01-30 13:35:00,62.6,59.3,29.16,South,189,3.0,8.0,89,0.00,,OVC032,0.01,VWS V13.01,2013-01-30 18:35:00,
2013-01-30 13:40:00,62.4,59.1,29.16,South,176,6.0,8.0,89,0.01,,OVC032,0.02,VWS V13.01,2013-01-30 18:40:00,
2013-01-30 13:45:00,62.2,58.9,29.16,South,170,5.0,17.0,89,0.01,,OVC032,0.02,VWS V13.01,2013-01-30 18:45:00,
2013-01-30 13:50:00,62.3,59.3,29.15,SE,144,7.0,20.0,90,0.01,,OVC032,0.02,VWS V13.01,2013-01-30 18:50:00,
2013-01-30 13:55:00,62.3,59.3,29.14,South,172,2.0,20.0,90,0.01,,OVC032,0.02,VWS V13.01,2013-01-30 18:55:00,
2013-01-30 14:00:00,62.3,59.3,29.13,SW,219,9.0,9.0,90,0.01,,OVC032,0.02,VWS V13.01,2013-01-30 19:00:00,
2013-01-30 14:05:00,62.3,59.3,29.14,SSE,154,5.0,18.0,90,0.01,,RA,0.02,VWS V13.01,2013-01-30 19:05:00,
2013-01-30 14:10:00,62.2,59.5,29.16,SSW,194,5.0,18.0,91,0.01,,RA,0.02,VWS V13.01,2013-01-30 19:10:00,
2013-01-30 14:15:00,62.0,59.7,29.16,South,184,7.0,18.0,92,0.04,,RA,0.07,VWS V13.01,2013-01-30 19:15:00,
2013-01-30 14:20:00,61.7,59.7,29.17,South,184,8.0,19.0,93,0.08,,RA,0.09,VWS V13.01,2013-01-30 19:20:00,
2013-01-30 14:25:00,61.3,59.6,29.17,South,188,9.0,19.0,94,0.08,,RA,0.09,VWS V13.01,2013-01-30 19:25:00,
2013-01-30 14:30:00,60.9,59.5,29.18,SW,214,5.0,9.0,95,0.09,,RA,0.10,VWS V13.01,2013-01-30 19:30:00,
2013-01-30 14:35:00,60.4,59.0,29.18,SSW,209,2.0,9.0,95,0.10,,-RA,0.11,VWS V13.01,2013-01-30 19:35:00,
2013-01-30 14:40:00,60.1,59.0,29.19,SSW,198,3.0,9.0,96,0.10,,-RA,0.11,VWS V13.01,2013-01-30 19:40:00,
2013-01-30 14:45:00,59.8,58.7,29.18,SSW,196,3.0,9.0,96,0.10,,-RA,0.11,VWS V13.01,2013-01-30 19:45:00,
2013-01-30 14:50:00,59.5,58.4,29.19,SSW,207,5.0,9.0,96,0.10,,-RA,0.11,VWS V13.01,2013-01-30 19:50:00,
2013-01-30 14:55:00,59.3,58.2,29.19,SSW,213,7.0,9.0,96,0.10,,-RA,0.11,VWS V13.01,2013-01-30 19:55:00,
2013-01-30 15:00:00,59.1,58.0,29.19,South,178,7.0,7.0,96,0.10,,-RA,0.11,VWS V13.01,2013-01-30 20:00:00,
2013-01-30 15:05:00,58.9,57.8,29.19,South,171,2.0,8.0,96,0.09,,-RA,0.11,VWS V13.01,2013-01-30 20:05:00,
2013-01-30 15:10:00,58.7,57.6,29.20,SW,221,5.0,11.0,96,0.09,,-RA,0.11,VWS V13.01,2013-01-30 20:10:00,
2013-01-30 15:15:00,58.6,57.5,29.20,SSW,208,4.0,11.0,96,0.09,,-RA,0.11,VWS V13.01,2013-01-30 20:15:00,
2013-01-30 15:20:00,58.4,57.3,29.21,SW,221,2.0,11.0,96,0.10,,-RA,0.12,VWS V13.01,2013-01-30 20:20:00,
2013-01-30 15:25:00,58.3,57.2,29.20,SW,218,1.0,11.0,96,0.11,,-RA,0.13,VWS V13.01,2013-01-30 20:25:00,
2013-01-30 15:30:00,58.2,57.1,29.20,SW,222,2.0,4.0,96,0.12,,-RA,0.14,VWS V13.01,2013-01-30 20:30:00,
2013-01-30 15:35:00,58.0,56.9,29.21,SW,224,3.0,6.0,96,0.04,,-RA,0.14,VWS V13.01,2013-01-30 20:35:00,
2013-01-30 15:40:00,57.9,57.1,29.21,SSW,202,3.0,6.0,97,0.05,,-RA,0.15,VWS V13.01,2013-01-30 20:40:00,
2013-01-30 15:45:00,57.8,56.7,29.19,SW,221,2.0,6.0,96,0.06,,-RA,0.16,VWS V13.01,2013-01-30 20:45:00,
2013-01-30 15:50:00,57.6,56.8,29.20,SW,225,0.0,6.0,97,0.07,,-RA,0.17,VWS V13.01,2013-01-30 20:50:00,
2013-01-30 15:55:00,57.5,56.7,29.19,SW,225,0.0,6.0,97,0.07,,-RA,0.17,VWS V13.01,2013-01-30 20:55:00,
2013-01-30 16:00:00,57.3,56.5,29.19,SW,225,0.0,0.0,97,0.07,,-RA,0.17,VWS V13.01,2013-01-30 21:00:00,
2013-01-30 16:05:00,57.2,56.1,29.18,SW,225,0.0,0.0,96,0.06,,-RA,0.17,VWS V13.01,2013-01-30 21:05:00,
2013-01-30 16:10:00,57.0,55.9,29.18,SW,225,1.0,1.0,96,0.06,,-RA,0.17,VWS V13.01,2013-01-30 21:10:00,
2013-01-30 16:15:00,56.7,55.9,29.19,SW,225,2.0,2.0,97,0.06,,-RA,0.17,VWS V13.01,2013-01-30 21:15:00,
2013-01-30 16:20:00,56.7,55.9,29.20,SW,225,1.0,3.0,97,0.07,,-RA,0.18,VWS V13.01,2013-01-30 21:20:00,
2013-01-30 16:25:00,56.5,55.7,29.20,SW,225,0.0,3.0,97,0.07,,-RA,0.18,VWS V13.01,2013-01-30 21:25:00,
2013-01-30 16:30:00,56.3,55.5,29.19,SW,226,0.0,0.0,97,0.07,,-RA,0.19,VWS V13.01,2013-01-30 21:30:00,
2013-01-30 16:35:00,56.2,55.4,29.19,SW,226,0.0,0.0,97,0.05,,-RA,0.19,VWS V13.01,2013-01-30 21:35:00,
2013-01-30 16:40:00,56.1,55.3,29.19,SW,226,0.0,0.0,97,0.05,,-RA,0.19,VWS V13.01,2013-01-30 21:40:00,
2013-01-30 16:45:00,56.0,55.2,29.20,SW,226,0.0,0.0,97,0.06,,-RA,0.20,VWS V13.01,2013-01-30 21:45:00,
2013-01-30 16:50:00,55.7,54.9,29.19,SW,226,0.0,0.0,97,0.06,,-RA,0.20,VWS V13.01,2013-01-30 21:50:00,
2013-01-30 16:55:00,55.5,54.7,29.19,SW,226,0.0,0.0,97,0.06,,-RA,0.20,VWS V13.01,2013-01-30 21:55:00,
2013-01-30 17:00:00,55.2,54.4,29.19,SW,226,0.0,0.0,97,0.06,,-RA,0.20,VWS V13.01,2013-01-30 22:00:00,
2013-01-30 17:05:00,54.9,54.1,29.19,SW,226,0.0,0.0,97,0.03,,-RA,0.20,VWS V13.01,2013-01-30 22:05:00,
2013-01-30 17:10:00,54.6,53.8,29.19,SW,226,0.0,0.0,97,0.03,,-RA,0.20,VWS V13.01,2013-01-30 22:10:00,
2013-01-30 17:15:00,54.4,53.6,29.18,SW,226,0.0,1.0,97,0.03,,-RA,0.20,VWS V13.01,2013-01-30 22:15:00,
2013-01-30 17:20:00,54.1,53.3,29.18,SW,226,0.0,1.0,97,0.03,,-RA,0.20,VWS V13.01,2013-01-30 22:20:00,
2013-01-30 17:25:00,53.8,53.0,29.18,SW,226,0.0,1.0,97,0.03,,-RA,0.20,VWS V13.01,2013-01-30 22:25:00,
2013-01-30 17:30:00,53.5,52.7,29.18,SW,226,0.0,0.0,97,0.03,,-RA,0.20,VWS V13.01,2013-01-30 22:30:00,
2013-01-30 17:35:00,53.3,52.5,29.17,SW,226,0.0,1.0,97,0.03,,-RA,0.21,VWS V13.01,2013-01-30 22:35:00,
2013-01-30 17:40:00,53.0,52.2,29.18,SW,226,0.0,2.0,97,0.03,,-RA,0.21,VWS V13.01,2013-01-30 22:40:00,
2013-01-30 17:45:00,52.8,52.0,29.18,SW,226,0.0,2.0,97,0.03,,-RA,0.21,VWS V13.01,2013-01-30 22:45:00,
2013-01-30 17:50:00,52.7,51.9,29.18,SW,226,0.0,2.0,97,0.03,,-RA,0.21,VWS V13.01,2013-01-30 22:50:00,
2013-01-30 17:55:00,52.6,51.8,29.17,SW,226,0.0,2.0,97,0.03,,-RA,0.21,VWS V13.01,2013-01-30 22:55:00,
2013-01-30 18:00:00,52.4,51.6,29.17,SW,226,0.0,0.0,97,0.03,,-RA,0.21,VWS V13.01,2013-01-30 23:00:00,
2013-01-30 18:05:00,52.2,51.4,29.17,SW,226,0.0,0.0,97,0.02,,-RA,0.22,VWS V13.01,2013-01-30 23:05:00,
2013-01-30 18:10:00,52.2,51.4,29.17,SW,226,0.0,0.0,97,0.02,,-RA,0.22,VWS V13.01,2013-01-30 23:10:00,
2013-01-30 18:15:00,52.0,51.5,29.19,SW,226,0.0,0.0,98,0.02,,-RA,0.22,VWS V13.01,2013-01-30 23:15:00,
2013-01-30 18:20:00,51.8,51.3,29.18,SW,226,0.0,1.0,98,0.03,,-RA,0.23,VWS V13.01,2013-01-30 23:20:00,
2013-01-30 18:25:00,51.7,51.2,29.17,SW,226,1.0,2.0,98,0.03,,-RA,0.24,VWS V13.01,2013-01-30 23:25:00,
2013-01-30 18:30:00,51.6,51.1,29.17,SW,226,0.0,0.0,98,0.05,,-RA,0.25,VWS V13.01,2013-01-30 23:30:00,
2013-01-30 18:35:00,51.5,51.0,29.17,SW,226,0.0,0.0,98,0.05,,RA,0.25,VWS V13.01,2013-01-30 23:35:00,
2013-01-30 18:40:00,51.4,50.9,29.17,SW,226,0.0,1.0,98,0.06,,RA,0.26,VWS V13.01,2013-01-30 23:40:00,
2013-01-30 18:45:00,51.2,50.7,29.51,SW,226,0.0,0.0,98,0.07,,RA,0.27,VWS V13.01,2013-01-30 23:45:00,
2013-01-30 18:50:00,51.2,50.7,29.49,SW,226,2.0,2.0,98,0.07,,RA,0.27,VWS V13.01,2013-01-30 23:50:00,
2013-01-30 18:55:00,51.2,50.7,29.50,SW,226,1.0,2.0,98,0.07,,RA,0.28,VWS V13.01,2013-01-30 23:55:00,
2013-01-30 19:00:00,51.3,50.8,29.50,SW,226,0.0,0.0,98,0.08,,RA,0.28,VWS V13.01,2013-01-31 00:00:00,
2013-01-30 19:05:00,51.3,50.8,29.50,SW,227,0.0,0.0,98,0.07,,RA,0.28,VWS V13.01,2013-01-31 00:05:00,
2013-01-30 19:10:00,51.4,51.1,29.50,SW,236,1.0,3.0,99,0.07,,RA,0.28,VWS V13.01,2013-01-31 00:10:00,
2013-01-30 19:15:00,51.5,51.0,29.49,SW,236,0.0,3.0,98,0.08,,RA,0.29,VWS V13.01,2013-01-31 00:15:00,
2013-01-30 19:20:00,51.5,51.2,29.49,SW,235,0.0,3.0,99,0.08,,RA,0.29,VWS V13.01,2013-01-31 00:20:00,
2013-01-30 19:25:00,51.4,51.1,29.50,SW,236,1.0,3.0,99,0.08,,RA,0.29,VWS V13.01,2013-01-31 00:25:00,
2013-01-30 19:30:00,51.5,51.2,29.48,SE,139,2.0,4.0,99,0.09,,RA,0.30,VWS V13.01,2013-01-31 00:30:00,
2013-01-30 19:35:00,51.6,51.3,29.47,SE,139,4.0,5.0,99,0.05,,-RA,0.30,VWS V13.01,2013-01-31 00:35:00,
2013-01-30 19:40:00,51.9,51.6,29.47,SE,139,0.0,6.0,99,0.05,,-RA,0.30,VWS V13.01,2013-01-31 00:40:00,
2013-01-30 19:45:00,52.1,52.1,29.46,SE,139,1.0,6.0,100,0.06,,-RA,0.31,VWS V13.01,2013-01-31 00:45:00,
2013-01-30 19:50:00,52.1,51.8,29.47,SE,139,0.0,6.0,99,0.06,,-RA,0.31,VWS V13.01,2013-01-31 00:50:00,
2013-01-30 19:55:00,52.0,51.7,29.47,SE,139,0.0,6.0,99,0.06,,-RA,0.31,VWS V13.01,2013-01-31 00:55:00,
2013-01-30 20:00:00,51.9,51.6,29.47,SE,139,1.0,1.0,99,0.06,,-RA,0.32,VWS V13.01,2013-01-31 01:00:00,
2013-01-30 20:05:00,51.9,51.6,29.47,SE,139,0.0,1.0,99,0.04,,RA,0.32,VWS V13.01,2013-01-31 01:05:00,
2013-01-30 20:10:00,51.8,51.5,29.46,SE,139,0.0,1.0,99,0.05,,RA,0.33,VWS V13.01,2013-01-31 01:10:00,
2013-01-30 20:15:00,51.6,51.3,29.46,SE,139,0.0,1.0,99,0.05,,RA,0.33,VWS V13.01,2013-01-31 01:15:00,
2013-01-30 20:20:00,51.4,51.1,29.45,SE,139,3.0,3.0,99,0.05,,RA,0.33,VWS V13.01,2013-01-31 01:20:00,
2013-01-30 20:25:00,51.2,50.9,29.45,SE,139,0.0,3.0,99,0.06,,RA,0.34,VWS V13.01,2013-01-31 01:25:00,
2013-01-30 20:30:00,50.9,50.6,29.44,SE,139,1.0,1.0,99,0.07,,RA,0.35,VWS V13.01,2013-01-31 01:30:00,
2013-01-30 20:35:00,50.9,50.6,29.44,SE,139,0.0,5.0,99,0.05,,RA,0.35,VWS V13.01,2013-01-31 01:35:00,
2013-01-30 20:40:00,51.0,50.7,29.43,ESE,118,7.0,7.0,99,0.05,,RA,0.35,VWS V13.01,2013-01-31 01:40:00,
2013-01-30 20:45:00,51.3,51.0,29.44,ESE,102,0.0,7.0,99,0.06,,RA,0.36,VWS V13.01,2013-01-31 01:45:00,
2013-01-30 20:50:00,51.4,51.4,29.44,ESE,103,0.0,7.0,100,0.06,,RA,0.37,VWS V13.01,2013-01-31 01:50:00,
2013-01-30 20:55:00,51.5,51.5,29.43,ESE,103,0.0,7.0,100,0.07,,RA,0.37,VWS V13.01,2013-01-31 01:55:00,
2013-01-30 21:00:00,51.7,51.7,29.42,East,81,2.0,3.0,100,0.07,,RA,0.38,VWS V13.01,2013-01-31 02:00:00,
2013-01-30 21:05:00,51.8,51.8,29.42,NE,43,1.0,3.0,100,0.08,,RA,0.39,VWS V13.01,2013-01-31 02:05:00,
2013-01-30 21:10:00,51.9,51.9,29.42,North,355,2.0,5.0,100,0.08,,RA,0.39,VWS V13.01,2013-01-31 02:10:00,
2013-01-30 21:15:00,51.8,51.8,29.41,North,355,1.0,5.0,100,0.09,,RA,0.40,VWS V13.01,2013-01-31 02:15:00,
2013-01-30 21:20:00,51.7,51.7,29.41,North,355,0.0,5.0,100,0.10,,RA,0.41,VWS V13.01,2013-01-31 02:20:00,
2013-01-30 21:25:00,51.7,51.7,29.40,North,355,0.0,5.0,100,0.10,,RA,0.42,VWS V13.01,2013-01-31 02:25:00,
2013-01-30 21:30:00,51.6,51.6,29.40,SE,127,1.0,2.0,100,0.12,,RA,0.43,VWS V13.01,2013-01-31 02:30:00,
2013-01-30 21:35:00,51.7,51.7,29.38,NNE,21,2.0,4.0,100,0.08,,RA,0.43,VWS V13.01,2013-01-31 02:35:00,
2013-01-30 21:40:00,51.9,51.9,29.38,East,95,3.0,5.0,100,0.09,,RA,0.44,VWS V13.01,2013-01-31 02:40:00,
2013-01-30 21:45:00,52.2,52.2,29.36,ENE,74,2.0,9.0,100,0.10,,RA,0.45,VWS V13.01,2013-01-31 02:45:00,
2013-01-30 21:50:00,52.3,52.3,29.36,North,0,1.0,9.0,100,0.10,,RA,0.45,VWS V13.01,2013-01-31 02:50:00,
2013-01-30 21:55:00,52.3,52.3,29.36,ENE,65,2.0,9.0,100,0.11,,RA,0.46,VWS V13.01,2013-01-31 02:55:00,
2013-01-30 22:00:00,52.2,52.2,29.35,NE,52,2.0,3.0,100,0.12,,RA,0.47,VWS V13.01,2013-01-31 03:00:00,
2013-01-30 22:05:00,52.3,52.3,29.35,ENE,64,2.0,9.0,100,0.10,,RA,0.47,VWS V13.01,2013-01-31 03:05:00,
2013-01-30 22:10:00,52.4,52.4,29.35,ESE,107,2.0,9.0,100,0.10,,RA,0.47,VWS V13.01,2013-01-31 03:10:00,
2013-01-30 22:15:00,52.6,52.6,29.35,ESE,107,2.0,9.0,100,0.11,,RA,0.48,VWS V13.01,2013-01-31 03:15:00,
2013-01-30 22:20:00,52.8,52.8,29.34,ENE,69,8.0,12.0,100,0.12,,RA,0.49,VWS V13.01,2013-01-31 03:20:00,
2013-01-30 22:25:00,53.2,53.2,29.34,ESE,104,3.0,12.0,100,0.12,,RA,0.49,VWS V13.01,2013-01-31 03:25:00,
2013-01-30 22:30:00,53.4,53.4,29.33,ESE,115,2.0,4.0,100,0.12,,RA,0.49,VWS V13.01,2013-01-31 03:30:00,
2013-01-30 22:35:00,53.6,53.6,29.33,ESE,112,1.0,6.0,100,0.07,,RA,0.50,VWS V13.01,2013-01-31 03:35:00,
2013-01-30 22:40:00,53.7,53.7,29.32,ENE,77,5.0,6.0,100,0.07,,RA,0.50,VWS V13.01,2013-01-31 03:40:00,
2013-01-30 22:45:00,53.8,53.8,29.31,East,97,3.0,8.0,100,0.08,,RA,0.51,VWS V13.01,2013-01-31 03:45:00,
2013-01-30 22:50:00,53.9,53.9,29.30,ENE,78,6.0,15.0,100,0.08,,RA,0.51,VWS V13.01,2013-01-31 03:50:00,
2013-01-30 22:55:00,54.0,54.0,29.30,NNE,31,0.0,15.0,100,0.09,,RA,0.52,VWS V13.01,2013-01-31 03:55:00,
2013-01-30 23:00:00,54.0,54.0,29.29,NNE,24,2.0,4.0,100,0.10,,RA,0.53,VWS V13.01,2013-01-31 04:00:00,
2013-01-30 23:05:00,54.0,54.0,29.29,ESE,106,2.0,4.0,100,0.07,,RA,0.55,VWS V13.01,2013-01-31 04:05:00,
2013-01-30 23:10:00,53.9,53.9,29.27,ESE,120,1.0,7.0,100,0.09,,RA,0.56,VWS V13.01,2013-01-31 04:10:00,
2013-01-30 23:15:00,53.9,53.9,29.27,East,100,3.0,10.0,100,0.10,,RA,0.57,VWS V13.01,2013-01-31 04:15:00,
2013-01-30 23:20:00,54.0,54.0,29.26,East,97,2.0,10.0,100,0.12,,RA,0.59,VWS V13.01,2013-01-31 04:20:00,
2013-01-30 23:25:00,54.0,54.0,29.26,East,88,4.0,10.0,100,0.13,,RA,0.60,VWS V13.01,2013-01-31 04:25:00,
2013-01-30 23:30:00,54.1,54.1,29.26,ESE,110,3.0,3.0,100,0.14,,RA,0.61,VWS V13.01,2013-01-31 04:30:00,
2013-01-30 23:35:00,54.2,54.2,29.26,ENE,68,3.0,9.0,100,0.14,,RA,0.63,VWS V13.01,2013-01-31 04:35:00,
2013-01-30 23:40:00,54.2,54.2,29.26,SE,131,0.0,12.0,100,0.16,,RA,0.65,VWS V13.01,2013-01-31 04:40:00,
2013-01-30 23:45:00,54.2,54.2,29.25,NE,45,3.0,12.0,100,0.17,,RA,0.66,VWS V13.01,2013-01-31 04:45:00,
2013-01-30 23:50:00,54.3,54.3,29.23,East,92,5.0,14.0,100,0.18,,RA,0.68,VWS V13.01,2013-01-31 04:50:00,
2013-01-30 23:55:00,54.4,54.4,29.22,East,81,5.0,15.0,100,0.20,,RA,0.69,VWS V13.01,2013-01-31 04:55:00,